Starlink 32634

operational
NORAD ID: 62313 Int'l Des: 2024-239 Owner: SPXS Country: US Constellation: starlink
LEOCIRCULAR

关于 Starlink 32634

正在加载描述...

实时位置

正在加载3D地球...

即将过境

高度历史

Altitude vs Time

uPlot chart will show altitude changes over time

两行轨道根数

1 62313U 24239N 25261.11952328 .00053293 00000-0 13317-2 0 9991
2 62313 53.1600 264.7708 0003000 29.4462 330.6711 15.39647398 43111
Epoch: Sep 18, 2025 • Age: 8 hours

当前状态

高度 448.6 km
速度 7.65 km/s
星下点 17.92°N, 98.55°W
发射日期 Dec 13, 2024
运行时间 0.7 years
类型 internet

技术详情

分类 Payload
质量 730.00 kg
干质量 700.00 kg
总质量 730.00 kg
长度 0.30 m
直径 4.10 m
跨度 29.00 m
形状 Box + pan
制造商 SPXS
平台类型 Starlink V2M
阶段状态 In Orbit
所有者/国家 SPXS/US

大型星座

Loading constellations...